GW2282 Weather Reports


time (UTC)temp
C
wind
direction
speed
KPH
gust
KPH
rain 1hr
cm
rain 24hr
cm
rain mn
cm
humidity
%
barometer
mb
20260507150051 11 273 12.9 24.1 0.00 0.00 0.00 77 1016.4
20260507144644 11 271 11.3 20.9 0.00 0.00 0.00 79 1016.3
20260507143036 11 264 12.9 25.7 0.00 0.00 0.00 79 1016.0
20260507141533 10 264 11.3 30.6 0.00 0.00 0.00 81 1016.1
20260507133030 9 265 8.0 17.7 0.00 0.00 0.00 83 1015.8
20260507131535 9 263 8.0 20.9 0.00 0.00 0.00 83 1015.7
20260507130036 9 260 11.3 25.7 0.00 0.00 0.00 83 1015.6
20260507124531 9 261 11.3 24.1 0.00 0.00 0.00 84 1015.6
20260507123034 9 258 12.9 29.0 0.00 0.00 0.00 84 1015.8
20260507121641 9 265 11.3 22.5 0.00 0.00 0.00 85 1016.0
20260507120041 8 268 9.7 22.5 0.00 0.00 0.00 85 1016.2
20260507114540 8 251 4.8 14.5 0.00 0.00 0.00 85 1016.2
20260507113033 8 219 4.8 11.3 0.00 0.00 0.00 84 1016.2
20260507110036 9 204 3.2 8.0 0.00 0.00 0.00 83 1016.0
20260507104534 10 239 6.4 17.7 0.00 0.00 0.00 82 1015.8
20260507101606 10 258 8.0 19.3 0.00 0.00 0.00 82 1015.4
20260507100043 10 242 9.7 22.5 0.00 0.00 0.00 82 1015.2
20260507094535 11 231 8.0 19.3 0.00 0.00 0.00 81 1015.5
20260507093037 11 229 6.4 17.7 0.00 0.00 0.00 81 1015.6
20260507091609 11 222 8.0 17.7 0.00 0.00 0.00 80 1015.5
20260507084534 12 245 11.3 22.5 0.00 0.00 0.00 79 1015.3
20260507081536 12 262 14.5 27.4 0.00 0.00 0.00 79 1015.2
20260507073032 12 261 12.9 27.4 0.00 0.00 0.00 77 1015.5
20260507070029 13 265 16.1 30.6 0.00 0.00 0.00 77 1015.0
20260507064531 13 262 14.5 32.2 0.00 0.00 0.00 76 1015.2
20260507063033 13 263 14.5 25.7 0.00 0.00 0.00 75 1015.4
20260507061530 13 264 14.5 25.7 0.00 0.00 0.00 75 1015.4
20260507060106 13 261 12.9 30.6 0.00 0.00 0.00 74 1015.5
20260507053031 13 264 14.5 29.0 0.00 0.00 0.00 71 1015.7
20260507050031 14 268 14.5 29.0 0.00 0.00 0.00 67 1015.5
20260507044607 15 268 14.5 30.6 0.00 0.00 0.00 65 1015.5
20260507043110 15 275 9.7 19.3 0.00 0.00 0.00 64 1015.6
20260507040046 15 268 6.4 16.1 0.00 0.00 0.00 62 1015.5
20260507034531 15 256 8.0 14.5 0.00 0.00 0.00 61 1015.3
20260507031532 16 259 9.7 19.3 0.00 0.00 0.00 59 1015.1
20260507030029 16 266 12.9 25.7 0.00 0.00 0.00 59 1015.0
20260507023035 17 266 11.3 24.1 0.00 0.00 0.00 58 1014.7
20260507021534 17 265 12.9 27.4 0.00 0.00 0.00 57 1014.5
20260507020110 17 263 16.1 32.2 0.00 0.00 0.00 56 1014.4
20260507011536 19 263 19.3 33.8 0.00 0.00 0.00 51 1014.2
20260507010030 20 262 16.1 37.0 0.00 0.00 0.00 50 1014.2
20260507004531 20 265 17.7 37.0 0.00 0.00 0.00 50 1014.2
20260507003107 20 262 17.7 33.8 0.00 0.00 0.00 49 1014.1
20260507001642 20 262 17.7 37.0 0.00 0.00 0.00 46 1014.0
20260507000037 21 264 20.9 45.1 0.00 0.00 0.00 44 1013.6
20260506234534 22 265 19.3 40.2 0.00 0.00 0.00 43 1013.6
20260506233034 22 264 19.3 41.8 0.00 0.00 0.00 43 1013.8
20260506231530 22 258 17.7 33.8 0.00 0.00 0.00 44 1014.1
20260506230034 22 256 17.7 38.6 0.00 0.00 0.00 44 1013.9
20260506223032 23 261 17.7 33.8 0.00 0.00 0.00 44 1014.3
20260506220107 23 259 17.7 38.6 0.00 0.00 0.00 44 1014.3
20260506214543 23 256 16.1 33.8 0.00 0.00 0.00 46 1014.3
20260506213111 22 259 17.7 41.8 0.00 0.00 0.00 48 1014.3
20260506211535 22 265 17.7 38.6 0.00 0.00 0.00 49 1014.4
20260506210034 21 264 17.7 33.8 0.00 0.00 0.00 50 1014.4
20260506203036 21 268 17.7 35.4 0.00 0.00 0.00 51 1014.8
20260506201606 21 274 17.7 35.4 0.00 0.00 0.00 53 1014.7
20260506194531 21 270 19.3 38.6 0.00 0.00 0.00 53 1014.4
20260506193107 21 273 19.3 38.6 0.00 0.00 0.00 54 1014.5
20260506191536 21 275 17.7 38.6 0.00 0.00 0.00 55 1014.6
20260506190032 21 264 14.5 29.0 0.00 0.00 0.00 56 1015.0
20260506184536 20 260 14.5 30.6 0.00 0.00 0.00 58 1015.1
20260506183042 20 258 14.5 27.4 0.00 0.00 0.00 59 1015.2
20260506181609 20 266 16.1 30.6 0.00 0.00 0.00 60 1015.1
20260506180035 20 265 14.5 27.4 0.00 0.00 0.00 60 1015.0
20260506173028 18 266 12.9 30.6 0.00 0.00 0.00 62 1014.8
20260506171648 18 267 16.1 32.2 0.00 0.00 0.00 63 1015.1
20260506164531 17 267 17.7 35.4 0.00 0.00 0.00 64 1015.3
20260506163034 17 271 16.1 35.4 0.00 0.00 0.00 65 1015.4
20260506160030 16 272 14.5 29.0 0.00 0.00 0.00 68 1015.3
20260506154530 16 272 16.1 35.4 0.00 0.00 0.00 69 1015.2
20260506153029 15 267 12.9 29.0 0.00 0.00 0.00 71 1015.3
20260506151610 15 264 12.9 25.7 0.00 0.00 0.00 73 1015.5